TimeMST,TemperatureF,Dew PointF,Humidity,Sea Level PressureIn,VisibilityMPH,Wind Direction,Wind SpeedMPH,Gust SpeedMPH,PrecipitationIn,Events,Conditions,WindDirDegrees,DateUTC
12:15 AM,1.4,-0.4,92,29.99,9.0,North,11.5,-,N/A,,Overcast,360,2014-02-02 07:15:00
12:35 AM,1.4,-0.4,92,29.99,2.5,North,8.1,-,N/A,,Overcast,10,2014-02-02 07:35:00
12:55 AM,1.4,-0.4,92,29.99,2.5,North,8.1,-,N/A,,Overcast,10,2014-02-02 07:55:00
1:15 AM,3.2,1.4,92,29.99,3.0,North,8.1,-,N/A,,Overcast,360,2014-02-02 08:15:00
1:35 AM,3.2,1.4,92,29.98,1.5,North,9.2,-,N/A,,Overcast,360,2014-02-02 08:35:00
1:55 AM,3.2,1.4,92,29.99,1.5,NNW,6.9,-,N/A,,Overcast,340,2014-02-02 08:55:00
2:15 AM,3.2,1.4,92,29.99,2.0,North,8.1,-,N/A,,Overcast,350,2014-02-02 09:15:00
2:35 AM,3.2,1.4,92,29.99,2.5,North,5.8,-,N/A,,Overcast,360,2014-02-02 09:35:00
2:55 AM,3.2,1.4,92,29.99,3.0,NNE,5.8,-,N/A,,Overcast,20,2014-02-02 09:55:00
3:15 AM,3.2,1.4,92,29.98,10.0,NNE,4.6,-,N/A,,Overcast,30,2014-02-02 10:15:00
3:35 AM,3.2,1.4,92,29.99,10.0,NNW,5.8,-,N/A,,Overcast,330,2014-02-02 10:35:00
3:55 AM,3.2,1.4,92,29.98,5.0,North,8.1,-,N/A,,Overcast,360,2014-02-02 10:55:00
4:15 AM,3.2,1.4,92,29.98,9.0,North,4.6,-,N/A,,Overcast,360,2014-02-02 11:15:00
4:35 AM,3.2,1.4,92,29.98,5.0,North,8.1,-,N/A,,Overcast,350,2014-02-02 11:35:00
4:55 AM,3.2,1.4,92,29.98,8.0,North,6.9,-,N/A,,Overcast,10,2014-02-02 11:55:00
5:15 AM,3.2,1.4,92,29.98,5.0,North,9.2,-,N/A,,Overcast,360,2014-02-02 12:15:00
5:35 AM,1.4,-0.4,92,29.98,4.0,NNE,5.8,-,N/A,,Overcast,20,2014-02-02 12:35:00
5:55 AM,1.4,-0.4,92,29.98,5.0,NNE,4.6,-,N/A,,Overcast,20,2014-02-02 12:55:00
6:15 AM,1.4,-0.4,92,29.98,7.0,North,4.6,-,N/A,,Overcast,10,2014-02-02 13:15:00
6:35 AM,1.4,-0.4,92,29.98,10.0,North,6.9,-,N/A,,Overcast,10,2014-02-02 13:35:00
6:51 AM,1.4,-0.4,92,29.97,10.0,North,8.1,-,N/A,,Overcast,350,2014-02-02 13:51:00
7:52 AM,1.4,-0.4,92,29.97,5.0,NNE,5.8,-,N/A,Snow,Light Snow,20,2014-02-02 14:52:00
8:51 AM,3.2,1.4,92,29.98,3.0,North,4.6,-,N/A,Snow,Light Snow,360,2014-02-02 15:51:00
9:55 AM,6.8,1.4,79,29.97,5.0,NNW,6.9,-,N/A,Snow,Light Snow Showers,330,2014-02-02 16:55:00
10:56 AM,8.6,5.0,85,29.97,3.0,Calm,Calm,-,N/A,Snow,Light Snow,0,2014-02-02 17:56:00
11:55 AM,12.2,8.6,85,29.94,4.0,Calm,Calm,-,N/A,Snow,Light Snow,0,2014-02-02 18:55:00
12:54 PM,12.2,8.6,85,29.90,10.0,Calm,Calm,-,N/A,,Scattered Clouds,0,2014-02-02 19:54:00
1:51 PM,14.0,8.6,79,29.86,10.0,Calm,Calm,-,N/A,,Scattered Clouds,0,2014-02-02 20:51:00
2:51 PM,15.8,8.6,73,29.86,10.0,Calm,Calm,-,N/A,,Scattered Clouds,0,2014-02-02 21:51:00
3:51 PM,15.8,10.4,79,29.85,10.0,Calm,Calm,-,N/A,,Scattered Clouds,0,2014-02-02 22:51:00
4:55 PM,12.2,8.6,85,29.84,10.0,SE,4.6,-,N/A,,Scattered Clouds,130,2014-02-02 23:55:00
5:51 PM,14.0,10.4,86,29.85,10.0,Calm,Calm,-,N/A,,Partly Cloudy,0,2014-02-03 00:51:00
6:58 PM,6.8,5.0,92,29.84,10.0,Calm,Calm,-,N/A,,Mostly Cloudy,0,2014-02-03 01:58:00
7:55 PM,3.2,1.4,92,29.83,10.0,North,6.9,-,N/A,,Overcast,360,2014-02-03 02:55:00
8:55 PM,6.8,5.0,92,29.82,10.0,NNE,3.5,-,N/A,,Overcast,30,2014-02-03 03:55:00
9:15 PM,8.6,6.8,92,29.83,9.0,Calm,Calm,-,N/A,,Overcast,0,2014-02-03 04:15:00
9:35 PM,8.6,6.8,92,29.83,9.0,Calm,Calm,-,N/A,,Overcast,0,2014-02-03 04:35:00
9:55 PM,6.8,5.0,92,29.83,5.0,NE,3.5,-,N/A,,Overcast,40,2014-02-03 04:55:00
10:15 PM,6.8,6.8,100,29.83,7.0,Calm,Calm,-,N/A,,Overcast,0,2014-02-03 05:15:00
10:35 PM,8.6,6.8,92,29.83,7.0,East,4.6,-,N/A,,Overcast,100,2014-02-03 05:35:00
10:55 PM,8.6,6.8,92,29.82,4.0,NNW,3.5,-,N/A,,Overcast,340,2014-02-03 05:55:00
11:15 PM,6.8,5.0,92,29.82,3.0,Calm,Calm,-,N/A,,Overcast,0,2014-02-03 06:15:00
11:35 PM,6.8,5.0,92,29.82,4.0,North,6.9,-,N/A,,Overcast,360,2014-02-03 06:35:00
11:55 PM,6.8,3.2,85,29.82,10.0,North,8.1,-,N/A,,Mostly Cloudy,360,2014-02-03 06:55:00